Location: ???????
(55.4362°N, 38.1183°E)
Time: 05:55:53
(UTC+00:00)

Cosmos 921 Rocket - Visible Passes

Search period start: 26 October 2021 00:00
Search period end: 05 November 2021 00:00
Orbit: 572 x 631 km, 75.8° (Epoch: 25 October)

Date Brightness Start Highest point End Pass type
(mag) Time Alt. Az. Time Alt. Az. Time Alt. Az.
26 Oct 5.5 00:30:48 16° NNE 00:30:48 16° NNE 00:31:40 10° NNE visible
26 Oct 5.2 02:07:36 13° NNW 02:07:36 13° NNW 02:08:47 10° N visible
27 Oct 5.5 00:42:42 14° N 00:42:42 14° N 00:43:26 10° NNE visible
28 Oct 5.6 00:54:35 13° N 00:54:35 13° N 00:55:07 10° N visible
29 Oct 5.6 01:06:27 11° N 01:06:27 11° N 01:06:43 10° N visible
